Wetbulb
67.97 70.90 72.10 72.85 73.29 73.39 73.54 73.55 73.53 73.50 73.89 74.17 74.46 74.63 74.80 74.75 74.63 74.26 74.36 74.17 74.21 74.72 73.93 73.61 73.97 72.97 72.24 71.95 72.14 72.61 72.66 72.40 72.57 73.24 73.67 73.87 73.32 72.80 72.53 72.63 72.16 71.69 73.38
70.07 71.19 71.77 72.51 73.04 73.73 73.77 73.59 73.62 73.79 74.43 74.41 74.31 74.64 74.59 74.64 74.62 74.38 74.39 74.57 74.36 74.72 73.92 73.29 73.50 72.74 71.80 71.45 71.90 72.00 71.76 71.61 72.08 72.45 73.11 73.45 73.13 72.65 72.46 72.24 71.87 72.25 73.11
69.85 71.15 71.81 72.11 72.69 73.50 73.87 73.96 73.88 74.37 74.68 74.51 74.35 74.37 74.39 74.62 74.47 74.22 74.09 73.97 74.31 75.07 74.04 73.23 73.39 72.74 71.62 71.29 70.79 70.86 71.10 71.20 71.18 71.53 72.38 71.30 71.23 73.01 72.09 72.06 72.00 72.61 73.12
69.84 70.65 71.45 71.98 72.28 73.04 73.31 73.52 73.83 74.25 74.47 74.35 74.25 74.25 74.22 74.42 74.32 73.88 73.63 73.71 74.03 74.22 73.59 73.23 72.78 73.23 72.18 70.67 70.30 70.21 70.18 70.36 70.23 70.81 69.91 71.38 70.73 73.03 72.26 72.45 72.40 72.55 72.47
69.79 70.81 71.79 71.64 71.50 72.34 72.81 73.35 73.35 73.46 73.64 73.81 74.05 74.44 74.42 74.47 74.42 74.14 73.58 73.65 73.86 73.92 73.34 72.70 73.01 73.73 72.00 70.23 69.72 69.58 69.65 69.47 69.38 68.83 68.02 69.05 69.60 71.87 72.96 72.72 72.29 72.15 71.36
70.10 70.78 70.73 70.79 71.64 72.24 72.35 72.56 72.78 72.69 72.43 72.74 73.36 73.98 74.26 74.37 74.19 73.56 72.94 73.12 73.39 73.52 73.45 73.30 73.64 72.82 71.40 70.42 69.93 69.72 69.35 69.03 68.82 65.71 66.12 68.23 69.98 72.39 72.85 72.56 71.55 71.43 71.29
69.65 70.29 70.87 70.59 71.37 71.99 72.27 72.15 71.73 71.70 71.86 72.42 72.73 73.15 73.33 73.32 72.97 72.40 72.11 72.41 72.53 72.85 72.69 72.42 72.13 71.76 71.54 70.95 70.66 69.82 69.18 68.69 67.81 66.21 66.40 66.43 69.57 72.41 73.08 72.65 71.63 71.55 71.45
69.74 70.33 71.01 71.61 71.44 71.20 71.27 71.00 70.85 70.96 71.42 71.68 71.97 72.37 72.74 72.42 72.02 71.80 71.55 71.48 71.49 71.13 71.10 70.81 70.52 70.40 70.56 70.58 70.52 69.85 69.10 68.48 68.18 66.36 66.71 66.29 69.05 72.21 73.13 72.75 71.19 70.56 70.91
70.01 70.20 70.33 70.78 70.36 69.18 68.75 69.00 69.56 70.34 70.69 70.80 70.80 70.73 70.43 69.96 70.04 69.95 69.28 69.21 69.08 68.94 68.90 68.71 68.42 68.42 68.75 69.05 69.04 68.83 68.21 68.57 67.88 66.61 67.66 67.64 71.40 72.61 72.87 71.86 71.44 71.01 70.64
69.57 69.65 69.21 69.12 68.66 68.02 68.15 67.97 68.35 68.75 69.17 69.47 69.48 68.90 68.42 68.64 69.03 68.13 66.35 66.84 66.94 66.98 66.72 66.62 66.96 67.02 67.16 67.17 67.13 66.90 67.20 67.90 67.69 67.63 68.02 68.02 70.23 72.06 72.59 71.57 71.17 71.07 71.20
68.99 68.77 68.19 68.28 67.36 66.66 66.74 68.23 68.23 68.78 68.64 68.69 68.51 68.26 67.53 67.91 66.42 64.18 64.55 64.58 63.97 64.58 65.10 65.02 65.27 65.71 65.72 65.58 66.28 66.99 67.15 67.13 67.49 68.02 67.87 67.31 69.60 71.34 71.54 70.83 70.10 70.19 70.57
68.12 68.16 68.65 67.36 65.94 65.37 66.54 65.43 65.54 67.31 66.53 67.25 67.48 68.15 68.40 67.41 65.89 64.37 63.70 63.46 63.01 63.14 64.62 64.78 64.97 64.39 63.25 62.13 62.57 66.33 66.18 65.42 65.66 67.11 67.07 67.80 69.87 71.42 71.55 70.83 70.15 69.71 69.70
69.08 69.42 68.54 67.53 66.49 65.06 65.04 65.63 66.48 66.64 66.49 65.49 66.37 67.95 67.05 65.47 64.63 63.11 62.10 60.74 58.07 59.76 56.36 57.53 57.74 57.23 56.55 57.04 59.01 60.73 60.54 61.94 62.63 65.01 67.03 66.99 68.79 69.50 69.87 69.80 69.05 69.21 69.81
67.78 68.52 68.74 67.91 67.44 66.26 66.75 64.67 64.70 63.73 61.08 60.69 59.09 60.13 63.52 60.71 58.05 55.85 55.28 54.41 53.61 53.00 52.30 52.67 52.63 53.42 53.66 55.31 55.71 56.55 56.90 58.32 58.26 60.27 64.54 65.60 67.09 68.17 68.41 68.90 68.70 68.78 69.14
66.82 67.22 67.74 67.87 67.41 66.18 63.12 60.23 59.93 58.92 57.92 55.88 55.12 55.09 55.69 54.77 54.07 53.38 52.01 51.25 51.02 50.38 50.69 50.50 50.39 51.42 51.56 52.62 53.70 54.28 55.77 55.60 55.45 56.00 58.10 63.36 64.83 66.48 67.20 67.70 68.08 68.25 68.07
66.78 66.15 66.26 66.90 65.60 61.72 58.97 57.84 56.36 55.94 54.01 52.48 51.94 52.35 52.74 51.67 50.95 50.31 50.11 49.44 49.35 49.83 49.79 49.55 49.23 49.49 49.91 51.15 51.27 52.50 52.00 52.11 52.96 54.12 56.44 58.24 59.67 61.21 63.28 64.97 65.72 66.02 66.02
66.55 66.44 65.83 63.57 61.34 59.21 57.33 56.25 55.28 54.30 52.63 50.75 50.30 50.47 51.09 50.64 50.22 49.70 48.84 48.43 48.96 49.27 48.64 48.69 48.52 48.78 48.43 49.87 49.75 49.68 50.21 50.27 50.76 51.39 57.25 56.42 55.46 57.75 58.75 60.42 61.92 63.41 64.33
63.27 62.57 61.74 61.79 58.69 56.89 55.46 54.55 54.35 52.73 51.38 49.80 49.35 49.46 50.19 50.84 50.28 49.08 48.24 47.52 48.39 48.25 47.77 47.03 46.97 47.09 46.86 47.39 46.12 46.43 47.09 48.82 50.20 52.57 57.62 56.63 55.14 52.63 54.88 56.60 57.42 58.86 60.01
61.08 59.62 58.17 58.08 57.11 55.60 54.22 53.46 52.08 50.76 50.32 49.57 49.05 48.66 49.40 50.28 50.06 48.52 47.39 47.07 47.43 47.51 46.77 46.76 46.16 46.02 45.59 44.99 45.59 46.18 46.82 48.73 50.29 56.30 54.43 53.91 53.38 52.38 51.60 54.33 54.18 55.03 55.94
60.10 58.51 58.17 57.63 55.71 53.82 52.16 51.01 50.02 48.64 48.33 49.01 48.21 48.23 48.51 48.58 49.44 47.85 46.94 46.82 47.17 45.99 45.21 44.66 44.23 44.78 44.94 43.96 47.11 46.87 44.95 46.82 53.97 52.90 52.99 53.58 52.84 51.29 50.52 50.09 49.21 52.07 53.69
58.08 57.41 57.37 55.91 53.88 52.83 50.50 48.85 47.35 45.97 46.97 46.68 47.01 47.88 47.53 47.50 47.85 46.88 46.20 46.06 46.18 44.57 43.57 43.86 43.58 43.24 43.26 43.41 41.59 43.05 48.50 46.76 48.02 52.23 50.81 49.34 50.04 49.46 48.61 48.38 48.06 47.75 50.15
56.23 56.19 55.42 54.93 53.38 52.33 50.70 48.40 47.20 46.31 45.84 46.20 46.29 46.19 46.44 46.17 46.35 46.72 45.56 44.52 44.95 43.48 42.54 42.27 42.46 41.46 42.71 42.97 39.74 40.65 40.26 44.61 44.19 47.99 46.19 46.26 44.18 45.86 46.35 46.60 46.14 46.10 47.09
54.45 54.86 54.45 53.97 53.28 52.27 51.21 49.23 46.69 46.58 45.45 44.13 43.81 43.62 44.60 45.73 45.93 45.49 44.70 43.60 42.75 42.78 41.61 40.58 40.60 40.35 39.45 40.55 40.73 40.36 37.15 36.68 39.56 43.91 43.62 43.38 43.19 42.97 44.00 44.12 43.27 43.32 44.05
54.26 54.60 54.12 53.83 53.36 52.85 50.16 46.93 46.17 44.68 42.94 43.15 42.85 42.43 43.12 44.59 44.70 44.88 44.00 43.06 42.17 41.54 40.13 40.38 40.47 39.10 38.82 37.01 39.17 41.52 39.60 39.52 36.94 35.12 39.79 40.33 40.69 42.33 41.42 41.77 41.19 41.87 41.74
54.46 54.00 53.95 53.65 53.64 52.46 49.00 47.97 45.85 43.27 43.02 43.71 43.85 42.48 42.09 42.83 43.75 43.07 41.80 40.16 39.57 39.81 38.94 38.59 38.05 38.34 38.11 36.73 37.11 36.72 36.81 38.06 37.13 35.78 33.93 35.08 38.10 39.42 42.41 40.89 40.23 40.05 40.80
54.77 54.31 53.89 52.96 52.74 51.12 50.27 47.94 46.44 43.97 43.39 43.16 42.86 41.49 40.90 40.90 41.19 41.27 40.66 38.67 38.09 37.81 38.37 38.37 38.04 37.59 37.05 36.47 36.50 36.55 36.08 34.50 33.63 33.55 32.02 32.32 32.37 35.88 38.58 39.65 39.07 38.52 38.54
MSLP
1011.48 1011.56 1011.44 1011.70 1012.05 1012.24 1012.60 1012.95 1013.27 1013.69 1014.06 1014.37 1014.52 1014.79 1015.05 1015.28 1015.56 1015.91 1015.96 1016.16 1016.35 1016.43 1016.61 1016.76 1016.86 1016.96 1017.02 1017.04 1017.00 1016.92 1016.81 1016.82 1016.91 1016.92 1016.97 1017.04 1017.08 1017.15 1017.40 1017.56 1017.48 1017.63 1017.77
1010.95 1011.57 1011.59 1011.84 1012.20 1012.35 1012.60 1012.89 1013.34 1013.70 1013.94 1014.31 1014.66 1014.97 1015.19 1015.45 1015.49 1015.98 1016.14 1016.31 1016.47 1016.51 1016.63 1016.81 1016.91 1016.95 1017.10 1017.15 1017.07 1016.99 1016.93 1016.96 1017.11 1017.12 1017.16 1017.27 1017.28 1017.41 1017.29 1017.35 1017.49 1017.77 1017.95
1010.97 1011.56 1011.65 1011.99 1012.33 1012.50 1012.74 1013.08 1013.47 1013.95 1014.14 1014.44 1014.76 1015.09 1015.34 1015.61 1015.71 1015.89 1016.24 1016.39 1016.45 1016.58 1016.67 1016.85 1017.00 1017.04 1017.21 1017.31 1017.33 1017.18 1017.11 1017.06 1017.31 1017.33 1017.34 1017.48 1017.30 1017.38 1017.51 1017.42 1017.57 1017.76 1018.02
1010.82 1011.52 1011.78 1012.08 1012.43 1012.70 1013.00 1013.18 1013.48 1013.84 1014.21 1014.53 1014.86 1015.11 1015.45 1015.75 1015.82 1015.99 1016.29 1016.47 1016.57 1016.69 1016.79 1016.93 1017.04 1017.15 1017.28 1017.38 1017.40 1017.42 1017.32 1017.23 1017.51 1017.56 1017.51 1017.24 1017.30 1017.28 1017.50 1017.64 1017.56 1017.70 1017.93
1010.98 1011.51 1011.99 1012.22 1012.58 1012.79 1013.12 1013.38 1013.69 1013.86 1014.38 1014.52 1014.99 1015.19 1015.44 1015.78 1015.94 1016.16 1016.44 1016.57 1016.65 1016.77 1016.79 1016.98 1017.18 1017.29 1017.45 1017.53 1017.51 1017.48 1017.44 1017.36 1017.35 1017.46 1017.49 1017.33 1017.16 1017.25 1017.19 1017.53 1017.60 1017.71 1017.91
1011.15 1011.70 1012.22 1012.38 1012.64 1012.99 1013.35 1013.61 1013.84 1014.16 1014.57 1014.66 1015.02 1015.30 1015.57 1015.88 1016.08 1016.31 1016.53 1016.60 1016.71 1016.85 1016.87 1017.05 1017.19 1017.30 1017.41 1017.52 1017.56 1017.54 1017.51 1017.36 1017.35 1017.20 1017.01 1016.95 1016.96 1016.98 1017.08 1017.25 1017.52 1017.62 1017.80
1011.37 1011.95 1012.56 1012.72 1012.82 1013.11 1013.46 1013.78 1014.05 1014.49 1014.72 1014.95 1015.38 1015.52 1015.79 1016.04 1016.27 1016.57 1016.74 1016.82 1016.90 1017.00 1017.04 1017.16 1017.29 1017.38 1017.42 1017.46 1017.46 1017.50 1017.52 1017.42 1017.35 1017.29 1017.05 1016.81 1016.84 1016.65 1016.91 1017.10 1017.31 1017.59 1017.84
1011.32 1012.04 1012.62 1013.23 1013.23 1013.27 1013.63 1013.96 1014.35 1014.65 1014.86 1015.18 1015.59 1015.75 1016.04 1016.24 1016.44 1016.75 1016.97 1017.04 1017.05 1017.15 1017.31 1017.37 1017.42 1017.50 1017.50 1017.45 1017.45 1017.39 1017.42 1017.38 1017.20 1017.12 1017.01 1017.05 1016.58 1016.61 1016.52 1016.86 1017.14 1017.38 1017.67
1011.33 1011.99 1012.77 1013.36 1013.67 1013.66 1013.88 1014.27 1014.57 1014.87 1015.19 1015.29 1015.75 1016.01 1016.31 1016.58 1016.79 1017.01 1017.20 1017.34 1017.38 1017.46 1017.48 1017.47 1017.50 1017.57 1017.57 1017.49 1017.40 1017.39 1017.31 1017.24 1017.24 1017.14 1016.89 1016.64 1016.58 1016.50 1016.46 1016.69 1016.97 1017.20 1017.52
1011.64 1012.38 1013.05 1013.67 1014.18 1014.18 1014.24 1014.61 1014.98 1015.06 1015.44 1015.61 1016.02 1016.33 1016.59 1016.84 1017.06 1017.40 1017.61 1017.74 1017.68 1017.73 1017.79 1017.75 1017.68 1017.53 1017.58 1017.58 1017.47 1017.11 1017.25 1017.39 1017.36 1017.28 1016.97 1016.46 1016.39 1016.31 1016.28 1016.45 1016.72 1016.95 1017.33
1011.95 1012.50 1013.19 1013.74 1014.41 1014.71 1014.79 1014.96 1015.21 1015.32 1015.80 1015.98 1016.27 1016.54 1016.77 1017.11 1017.33 1017.65 1017.76 1017.77 1017.88 1017.90 1017.91 1017.79 1017.65 1017.60 1017.57 1017.47 1017.33 1016.90 1017.25 1017.35 1017.17 1016.98 1016.92 1016.84 1016.65 1016.32 1016.36 1016.47 1016.70 1016.78 1017.02
1012.11 1012.75 1013.27 1013.87 1014.45 1015.01 1015.08 1015.21 1015.44 1015.56 1015.87 1016.15 1016.39 1016.72 1016.92 1017.01 1017.23 1017.41 1017.70 1017.77 1017.93 1018.09 1017.93 1018.02 1017.88 1017.78 1017.75 1017.72 1017.56 1017.38 1017.40 1017.29 1017.16 1017.15 1016.97 1016.65 1016.34 1016.26 1016.26 1016.48 1016.76 1016.95 1016.99
1011.74 1012.54 1013.26 1013.72 1014.12 1014.86 1015.15 1015.33 1015.57 1015.73 1015.98 1016.29 1016.45 1016.66 1016.78 1017.07 1017.37 1017.69 1017.92 1018.28 1018.35 1018.41 1018.35 1018.27 1018.26 1018.22 1018.15 1018.05 1017.90 1017.68 1017.57 1017.49 1017.46 1017.37 1017.22 1016.96 1016.78 1016.54 1016.65 1016.67 1016.85 1017.01 1016.99
1011.40 1012.29 1013.11 1013.50 1013.90 1014.25 1014.67 1015.02 1015.30 1015.79 1016.18 1016.36 1016.80 1016.89 1016.82 1017.23 1017.73 1018.10 1018.32 1018.48 1018.56 1018.69 1018.86 1018.78 1018.74 1018.49 1018.33 1018.19 1018.03 1017.98 1017.82 1017.67 1017.51 1017.32 1017.36 1017.13 1017.01 1016.93 1016.96 1016.91 1016.74 1016.85 1016.92
1011.16 1011.99 1012.82 1013.36 1013.64 1013.97 1014.78 1015.19 1015.42 1015.95 1016.48 1016.90 1017.12 1017.21 1017.28 1017.52 1017.93 1018.05 1018.33 1018.51 1018.71 1018.72 1018.91 1019.04 1018.97 1018.89 1018.75 1018.44 1018.20 1018.03 1017.91 1017.77 1017.50 1017.45 1017.30 1017.54 1017.60 1017.35 1017.24 1017.30 1017.23 1017.23 1017.20
1010.51 1011.44 1012.26 1012.99 1013.38 1013.86 1014.88 1015.20 1015.79 1016.24 1016.72 1017.03 1017.39 1017.52 1017.62 1017.85 1018.11 1018.44 1018.76 1018.94 1019.11 1019.07 1019.16 1019.25 1019.35 1019.28 1019.16 1018.97 1018.79 1018.55 1018.26 1018.05 1017.75 1017.43 1017.84 1018.32 1018.15 1018.38 1018.18 1017.96 1017.90 1017.71 1017.60
1009.72 1010.63 1011.73 1012.60 1013.07 1013.66 1014.57 1015.08 1015.73 1016.28 1016.87 1017.45 1017.66 1017.69 1017.77 1018.02 1018.30 1018.71 1019.12 1019.22 1019.24 1019.21 1019.26 1019.34 1019.32 1019.20 1019.34 1019.11 1019.10 1018.74 1018.63 1018.32 1018.00 1017.67 1018.09 1018.48 1018.84 1018.88 1018.73 1018.88 1018.79 1018.57 1018.25
1009.65 1010.44 1011.24 1012.19 1013.08 1013.88 1014.53 1015.21 1015.76 1016.36 1016.89 1017.36 1017.67 1017.90 1018.01 1018.17 1018.50 1018.90 1019.24 1019.50 1019.48 1019.53 1019.58 1019.50 1019.50 1019.32 1019.17 1019.12 1018.96 1018.92 1018.77 1018.44 1018.07 1018.18 1018.47 1018.56 1018.87 1019.09 1019.31 1019.62 1019.63 1019.32 1019.15
1009.70 1010.66 1011.84 1012.76 1013.54 1014.13 1014.83 1015.35 1015.93 1016.50 1016.98 1017.40 1017.61 1017.94 1018.08 1018.30 1018.53 1018.95 1019.47 1019.70 1019.68 1019.95 1019.85 1019.82 1019.74 1019.67 1019.68 1019.39 1019.06 1018.93 1018.90 1018.44 1018.29 1018.37 1018.72 1018.88 1019.11 1019.43 1019.50 1019.51 1019.71 1020.00 1019.77
1009.37 1010.49 1011.75 1012.77 1013.84 1014.63 1015.31 1015.92 1016.47 1016.92 1017.23 1017.47 1017.79 1018.03 1018.10 1018.34 1018.53 1018.86 1019.21 1019.40 1019.61 1019.95 1020.33 1020.25 1020.24 1020.23 1020.15 1019.71 1019.24 1018.90 1018.49 1018.74 1018.50 1018.81 1018.80 1018.81 1019.02 1019.47 1019.59 1019.64 1019.96 1020.13 1020.37
1009.03 1010.22 1011.44 1012.53 1014.03 1015.18 1015.89 1016.48 1017.05 1017.45 1017.74 1017.98 1018.11 1018.30 1018.45 1018.57 1018.77 1019.04 1019.31 1019.61 1019.84 1020.41 1020.72 1020.70 1020.51 1020.57 1020.48 1019.91 1019.65 1019.29 1019.02 1018.95 1018.85 1019.14 1019.35 1019.28 1019.48 1019.64 1019.70 1019.86 1019.93 1020.26 1020.56
1008.82 1009.98 1011.18 1012.23 1013.35 1014.63 1015.82 1016.64 1017.06 1017.53 1018.06 1018.28 1018.50 1018.68 1018.76 1018.91 1018.95 1019.22 1019.49 1019.95 1020.13 1020.33 1020.64 1020.79 1020.86 1020.96 1020.95 1020.46 1020.75 1020.77 1020.41 1020.01 1020.06 1020.17 1019.79 1019.94 1020.11 1020.03 1020.07 1020.22 1020.30 1020.59 1021.08
1008.83 1009.78 1010.90 1012.15 1013.16 1014.28 1015.43 1016.43 1017.30 1017.87 1018.37 1018.80 1019.00 1019.15 1019.12 1019.12 1019.27 1019.54 1019.88 1020.27 1020.48 1020.62 1020.90 1021.07 1021.14 1021.13 1021.41 1021.22 1021.04 1021.21 1021.41 1021.48 1021.37 1020.54 1020.64 1020.76 1020.89 1020.70 1020.39 1020.67 1020.94 1020.85 1021.28
1008.67 1009.75 1010.71 1011.65 1012.61 1013.48 1014.64 1015.86 1016.83 1017.60 1018.47 1018.89 1019.24 1019.53 1019.73 1019.69 1019.83 1019.93 1020.09 1020.36 1020.64 1020.94 1021.29 1021.53 1021.55 1021.49 1021.41 1021.85 1021.61 1021.63 1021.77 1021.97 1022.01 1021.71 1021.38 1021.35 1021.30 1021.45 1021.37 1021.02 1021.11 1021.14 1021.34
1008.13 1009.31 1010.42 1011.32 1012.26 1013.23 1014.30 1015.01 1016.19 1017.27 1017.85 1018.55 1019.29 1019.77 1020.01 1020.22 1020.26 1020.36 1020.47 1020.73 1020.99 1021.20 1021.69 1021.89 1021.96 1021.89 1021.84 1022.11 1022.20 1022.27 1022.36 1022.32 1022.37 1022.57 1022.64 1022.79 1021.96 1021.78 1021.79 1021.83 1021.63 1021.70 1021.69
1008.41 1009.55 1010.62 1011.62 1012.47 1013.43 1014.37 1015.16 1015.89 1016.87 1017.89 1018.66 1019.44 1019.93 1020.26 1020.40 1020.55 1020.55 1020.69 1021.10 1021.40 1021.59 1021.93 1022.08 1021.98 1022.26 1022.17 1022.41 1022.64 1022.82 1022.99 1023.12 1023.33 1023.22 1023.50 1023.65 1023.43 1022.46 1022.19 1022.41 1022.42 1022.34 1022.56
Wind_Speed
7 9 15 16 15 15 14 13 13 13 12 11 11 11 11 11 11 10 11 10 9 10 10 9 9 9 9 10 10 9 9 9 9 8 7 8 10 11 9 6 7 9 10
14 9 13 15 15 15 15 15 14 12 13 13 11 11 11 10 11 9 9 9 8 8 8 7 7 8 7 7 7 7 6 6 7 5 3 6 7 7 8 5 4 8 9
15 11 12 14 13 14 14 14 13 12 13 13 12 11 10 9 10 10 8 7 6 7 7 6 5 6 6 6 6 6 6 6 6 5 5 2 4 7 6 9 11 10 9
16 10 10 14 13 13 13 14 13 13 13 13 12 11 10 9 9 9 8 7 7 6 6 5 4 4 5 4 5 6 6 7 7 5 4 4 5 8 8 7 10 9 9
14 12 11 13 12 13 13 13 12 14 12 13 11 11 11 9 9 8 7 7 6 5 5 3 1 5 3 3 4 5 7 8 8 6 4 7 8 9 12 9 8 8 8
14 12 10 12 13 13 13 13 13 13 11 12 11 11 10 9 9 8 7 6 5 4 4 4 5 4 3 2 3 4 7 9 8 6 5 4 5 11 13 12 10 9 8
13 11 8 10 12 13 13 13 13 12 11 11 10 10 9 9 9 7 6 5 5 5 5 4 4 4 4 4 5 5 6 9 6 5 6 5 3 14 14 11 10 8 8
15 11 9 10 10 12 12 12 12 11 11 10 9 9 9 10 10 10 9 8 7 6 5 4 3 4 4 5 7 7 6 7 7 7 6 4 7 13 13 11 10 9 7
14 12 9 8 10 13 12 11 11 11 11 12 11 11 11 11 11 12 10 9 9 8 7 6 5 4 5 6 8 8 8 7 5 4 8 4 6 12 11 12 10 10 9
13 12 9 8 7 7 8 12 11 11 11 12 12 11 10 10 11 11 10 8 8 7 6 5 4 4 6 7 10 10 7 8 5 5 6 7 5 11 10 11 11 10 9
10 12 10 9 7 7 7 8 10 12 10 10 9 9 7 4 6 6 7 7 5 2 2 5 8 8 9 8 8 6 3 3 5 4 4 9 8 11 9 8 8 9 8
13 12 10 10 8 6 5 5 5 6 5 4 5 4 3 4 5 6 5 5 3 7 7 7 11 10 8 5 4 6 3 4 4 3 2 9 11 11 8 3 6 5 5
14 10 11 11 10 7 5 4 3 2 3 4 5 3 5 3 3 3 3 3 4 9 5 7 7 5 7 5 4 5 5 5 3 3 3 7 10 12 11 10 6 6 4
14 13 11 11 10 8 5 4 4 4 4 4 5 5 4 4 5 4 4 5 5 4 6 5 4 5 6 6 6 6 6 4 3 2 1 2 7 9 9 9 7 5 2
16 14 13 11 8 11 6 4 5 6 5 5 5 5 5 5 5 4 5 5 4 4 4 4 5 4 5 6 6 5 5 6 6 4 3 15 13 11 11 11 10 9 12
19 17 15 14 6 10 7 7 6 6 6 5 5 5 6 5 5 5 5 5 4 4 4 4 4 5 5 4 6 6 6 6 6 5 5 9 20 19 18 16 14 13 12
18 18 16 13 11 11 10 9 6 7 7 5 4 6 6 6 6 6 5 4 4 4 6 5 4 4 4 4 5 5 5 7 6 6 7 6 8 18 20 19 20 19 15
18 19 17 12 12 10 9 7 7 7 6 5 5 5 6 6 7 6 5 3 2 4 4 3 3 3 4 4 4 4 4 5 7 6 7 6 6 5 12 17 17 18 19
17 16 13 13 11 9 8 6 7 8 7 5 5 4 6 6 7 6 4 3 5 4 4 4 3 3 3 4 5 4 5 5 4 7 8 9 7 5 4 13 14 13 15
18 16 16 12 10 8 6 6 5 5 4 5 5 4 6 5 7 6 5 5 5 4 4 4 4 4 3 4 3 4 3 3 5 5 5 6 7 6 5 5 5 5 11
19 18 18 16 11 8 4 4 4 4 5 4 4 6 6 5 6 6 5 6 5 5 4 5 2 4 5 5 4 5 5 5 6 5 4 6 5 5 5 4 3 4 5
20 19 17 17 15 10 5 3 3 4 3 4 4 5 6 6 6 6 6 5 5 5 6 6 5 3 3 5 2 1 4 5 5 6 5 5 6 4 5 10 9 8 8
20 19 18 16 15 10 8 5 4 5 4 3 3 4 4 6 6 7 7 5 6 5 4 5 4 5 3 5 7 3 3 1 2 2 6 7 6 4 6 8 8 9 9
18 17 18 17 15 10 10 9 12 7 6 3 3 3 4 6 6 6 6 6 6 4 6 4 5 3 4 4 3 4 4 1 1 4 3 5 5 6 5 5 5 6 8
20 18 17 16 14 8 10 14 10 7 3 5 6 7 6 5 6 6 6 6 6 5 5 6 5 6 4 3 3 2 3 3 4 3 3 5 5 4 4 4 5 5 7
15 15 15 14 10 11 10 11 10 9 9 10 8 6 5 4 4 6 7 6 6 6 5 4 5 6 5 5 4 5 3 3 2 3 2 3 3 4 3 4 5 4 5
Wind_Direction
132 142 125 118 114 114 116 124 127 132 126 116 109 106 102 100 95 93 93 94 93 91 84 77 71 63 55 51 47 45 45 48 55 60 86 100 102 103 94 90 89 111 105
128 135 121 116 115 115 117 123 129 133 126 123 120 114 113 114 111 111 107 107 106 104 94 84 78 73 62 56 57 49 35 38 53 44 67 106 113 110 110 93 120 121 120
126 132 119 115 115 112 114 115 120 123 124 125 126 127 124 124 121 117 115 112 117 109 101 95 82 78 64 45 35 35 14 359 39 13 341 342 147 134 121 107 120 130 131
129 122 120 119 118 117 116 120 123 126 127 129 130 129 128 128 124 121 123 113 100 94 99 97 84 81 66 47 20 5 353 339 4 352 312 271 242 160 152 144 136 137 140
120 120 127 127 126 120 119 119 120 121 130 124 129 130 130 133 126 124 127 118 110 112 112 103 89 98 63 27 4 346 333 329 336 328 277 252 223 186 169 168 151 149 154
116 117 128 129 127 123 122 122 122 122 132 126 133 130 130 134 126 126 129 122 110 101 81 41 33 91 71 348 319 315 313 314 320 315 302 339 202 189 180 165 166 170 173
110 113 120 122 124 124 124 123 120 130 128 124 126 126 128 124 120 122 115 93 79 62 59 43 26 25 0 309 290 293 299 305 312 297 299 319 204 188 171 172 175 175 180
117 113 117 117 117 117 118 116 118 120 119 120 122 116 105 98 93 83 71 68 70 63 51 38 20 351 316 298 296 290 283 288 304 312 311 321 243 194 171 179 179 173 180
117 116 112 121 109 99 104 108 116 113 109 105 103 103 102 99 95 86 81 71 70 63 56 49 37 6 330 302 289 286 282 270 278 283 300 298 220 204 187 184 179 180 192
123 118 111 121 111 104 105 108 111 111 109 107 107 106 113 109 104 98 82 72 63 53 38 24 3 330 327 326 306 274 273 297 295 283 276 276 249 230 208 194 188 182 192
122 126 132 126 112 106 110 120 118 115 117 117 116 129 135 131 109 93 107 98 84 71 331 334 324 334 336 325 315 349 326 276 268 261 264 316 276 259 232 206 203 192 197
140 141 141 126 125 141 132 130 122 124 123 138 129 145 125 116 127 131 127 132 88 15 24 358 12 26 18 7 358 25 16 333 348 5 23 15 20 21 6 277 206 218 226
141 133 137 138 144 145 150 163 147 138 113 75 84 149 145 111 79 102 91 49 55 40 32 24 24 25 12 5 8 12 5 3 5 354 46 61 46 39 37 33 24 18 279
148 140 143 149 159 148 160 148 131 112 87 76 65 31 96 94 82 85 75 60 59 46 32 30 19 10 9 2 2 354 350 354 345 358 24 60 67 57 32 23 20 337 277
152 149 150 162 162 162 142 128 121 110 106 99 75 53 82 80 90 77 78 75 71 59 46 28 18 8 359 354 352 357 349 340 337 329 346 49 46 52 49 31 8 360 356
153 155 156 170 159 127 129 109 108 104 105 91 77 70 79 82 96 85 74 68 56 56 46 36 23 14 4 5 354 1 347 347 333 323 67 64 65 55 50 50 42 38 38
158 156 158 146 132 121 122 124 119 116 104 95 89 73 76 74 88 92 82 63 37 60 53 39 23 28 11 356 358 343 339 330 321 322 104 99 71 62 61 51 46 39 37
139 141 141 129 123 120 119 119 117 121 117 118 105 86 80 73 93 85 81 59 55 76 62 47 29 6 18 17 342 324 320 316 307 47 92 89 91 81 71 66 53 47 40
141 132 120 119 122 120 118 118 119 124 125 127 111 103 90 86 100 94 90 47 74 64 46 27 8 33 34 348 316 321 322 318 11 100 96 97 102 111 104 86 76 59 47
139 132 129 127 121 110 106 113 95 108 104 114 113 116 110 96 116 116 105 88 85 76 42 25 26 9 27 331 330 330 302 349 71 104 119 115 103 94 96 101 107 92 71
140 136 140 131 126 122 119 126 124 132 118 100 101 109 99 89 86 101 84 75 81 76 68 34 16 40 7 345 27 347 33 74 65 66 61 72 76 89 90 95 106 72 73
143 139 137 137 135 136 135 132 119 130 108 114 100 96 91 87 88 89 92 84 101 93 68 46 32 27 10 13 63 93 25 351 21 55 43 33 55 82 69 56 60 53 72
144 143 139 140 142 143 156 131 90 93 90 89 102 97 96 93 90 91 85 86 82 81 79 64 39 51 43 10 37 98 66 177 323 353 42 42 25 35 85 83 74 71 84
143 137 142 148 153 157 146 133 148 149 148 169 117 108 91 90 88 85 89 86 86 77 67 54 41 51 84 45 3 21 51 148 142 334 2 23 4 31 36 79 86 82 98
144 145 147 150 160 140 144 145 145 147 143 121 126 118 114 90 86 86 84 85 85 81 75 72 51 48 62 76 53 13 21 35 34 72 338 345 341 43 38 49 69 58 68
134 138 146 148 152 138 141 152 157 146 136 135 141 134 121 108 106 99 92 82 82 82 90 97 79 64 70 63 51 36 53 77 22 52 18 344 316 323 47 43 51 56 55